Weather History for K36U - October, 2011

Change the Weather History Date:

Monday, October 10, 2011

  Actual Average (KPVU) Record (KPVU)
Temperature  
Mean Temperature 44 °F -  
Max Temperature 60 °F 65 °F 86 °F (1996)
Min Temperature 28 °F 37 °F 29 °F (1982)
Degree Days  
Heating Degree Days 21    
Moisture  
Dew Point 32 °F    
Average Humidity 73    
Maximum Humidity 100    
Minimum Humidity 34    
Precipitation  
Precipitation 0.00 in - - ()
Sea Level Pressure  
Sea Level Pressure 30.04 in    
Wind  
Wind Speed 2 mph (SW)    
Max Wind Speed 16 mph    
Max Gust Speed 23 mph    
Visibility 9 miles    
Events Fog , Rain    
Averages and records for this station are not official NWS values.
T = Trace of Precipitation, MM = Missing Value Source: NWS Daily Summary

Daily Weather History Graph

Daily Weather History Graph

Search for Another Location

Airport or City:

Trip Planner

Search our weather history database for the weather conditions in past years. The results will help you decide how hot, cold, wet, or windy it might be!

Date:

Astronomy

Oct. 10, 2011 Rise Set
Actual Time 7:31 AM MDT 6:53 PM MDT
Civil Twilight 7:03 AM MDT 7:20 PM MDT
Nautical Twilight 6:32 AM MDT 7:52 PM MDT
Astronomical Twilight 6:00 AM MDT 8:24 PM MDT
Moon 5:59 PM MDT (10/10) 6:15 AM MDT (10/10)
Length of Visible Light 12h 17m
Length of Day
11h 22m
Waxing Gibbous, 98% of the Moon is Illuminated
Oct 10
Waxing Gibbous
Oct 11
Full
Oct 19
Last Quarter
Oct 26
New
Nov 2
First Quarter

Hourly Weather History & Observations

Time (MDT) Temp. Windchill Dew Point Humidity Pressure Visibility Wind Dir Wind Speed Gust Speed Precip Events Conditions
12:35 AM 32.0 °F - 30.2 °F 93% 30.09 in 10.0 mi Calm Calm - N/A   Clear
12:55 AM 32.0 °F - 30.2 °F 93% 30.09 in 10.0 mi Calm Calm - N/A   Clear
1:15 AM 30.2 °F - 30.2 °F 100% 30.08 in 10.0 mi Calm Calm - N/A   Clear
1:35 AM 30.2 °F - 28.4 °F 93% 30.08 in 10.0 mi Calm Calm - N/A   Clear
1:55 AM 30.2 °F - 28.4 °F 93% 30.08 in 10.0 mi Calm Calm - N/A   Clear
2:15 AM 30.2 °F - 28.4 °F 93% 30.09 in 10.0 mi Calm Calm - N/A   Clear
2:35 AM 30.2 °F - 28.4 °F 93% 30.09 in 10.0 mi Calm Calm - N/A   Clear
2:55 AM 30.2 °F - 28.4 °F 93% 30.09 in 10.0 mi Calm Calm - N/A   Clear
3:15 AM 30.2 °F 26.7 °F 28.4 °F 93% 30.08 in 10.0 mi SE 3.5 mph - N/A   Clear
3:35 AM 30.2 °F - 28.4 °F 93% 30.08 in 10.0 mi Calm Calm - N/A   Clear
3:55 AM 30.2 °F - 28.4 °F 93% 30.08 in 10.0 mi Calm Calm - N/A   Clear
4:15 AM 30.2 °F 26.7 °F 28.4 °F 93% 30.07 in 10.0 mi SE 3.5 mph - N/A   Clear
4:35 AM 28.4 °F - 28.4 °F 100% 30.07 in 10.0 mi Calm Calm - N/A   Clear
4:55 AM 28.4 °F - 28.4 °F 100% 30.06 in 10.0 mi Calm Calm - N/A   Clear
5:15 AM 28.4 °F - 28.4 °F 100% 30.07 in 10.0 mi Calm Calm - N/A   Clear
5:35 AM 28.4 °F - 28.4 °F 100% 30.07 in 10.0 mi Calm Calm - N/A   Clear
5:55 AM 28.4 °F - 28.4 °F 100% 30.08 in 10.0 mi Calm Calm - N/A   Clear
6:15 AM 28.4 °F - 28.4 °F 100% 30.08 in 10.0 mi Calm Calm - N/A   Clear
6:35 AM 30.2 °F - 30.2 °F 100% 30.08 in 0.2 mi Calm Calm - N/A Fog Light Freezing Fog
6:55 AM 30.2 °F - 30.2 °F 100% 30.08 in 0.2 mi Calm Calm - N/A Fog Light Freezing Fog
7:55 AM 30.2 °F - 30.2 °F 100% 30.09 in 0.2 mi Calm Calm - N/A Fog Light Freezing Fog
8:15 AM 30.2 °F - 30.2 °F 100% 30.09 in 0.2 mi Calm Calm - N/A Fog Light Freezing Fog
8:35 AM 32.0 °F 27.5 °F 32.0 °F 100% 30.09 in 1.2 mi East 4.6 mph - N/A   Scattered Clouds
8:55 AM 32.0 °F - 32.0 °F 100% 30.09 in 10.0 mi Calm Calm - N/A   Clear
9:15 AM 33.8 °F - 32.0 °F 93% 30.09 in 10.0 mi Calm Calm - N/A   Clear
9:35 AM 33.8 °F 30.8 °F 32.0 °F 93% 30.08 in 7.0 mi West 3.5 mph - N/A   Scattered Clouds
9:55 AM 35.6 °F - 32.0 °F 87% 30.08 in 10.0 mi Calm Calm - N/A   Scattered Clouds
10:15 AM 35.6 °F - 33.8 °F 93% 30.08 in 10.0 mi Calm Calm - N/A   Clear
10:35 AM 39.2 °F - 33.8 °F 81% 30.08 in 10.0 mi Calm Calm - N/A   Clear
10:55 AM 41.0 °F - 33.8 °F 76% 30.08 in 10.0 mi Calm Calm - N/A   Clear
11:15 AM 42.8 °F - 33.8 °F 70% 30.07 in 10.0 mi Calm Calm - N/A   Clear
11:35 AM 42.8 °F - 33.8 °F 70% 30.06 in 10.0 mi Calm Calm - N/A   Clear
11:55 AM 44.6 °F - 33.8 °F 66% 30.06 in 10.0 mi Calm Calm - N/A   Clear
12:15 PM 46.4 °F - 33.8 °F 62% 30.05 in 10.0 mi Calm Calm - N/A   Clear
12:35 PM 50.0 °F - 35.6 °F 58% 30.04 in 10.0 mi Calm Calm - N/A   Clear
12:55 PM 51.8 °F - 35.6 °F 54% 30.03 in 10.0 mi Calm Calm - N/A   Clear
1:15 PM 53.6 °F - 33.8 °F 47% 30.02 in 10.0 mi WNW 3.5 mph - N/A   Clear
1:35 PM 55.4 °F - 32.0 °F 41% 30.01 in 10.0 mi WSW 6.9 mph - N/A   Clear
1:55 PM 55.4 °F - 32.0 °F 41% 30.01 in 10.0 mi WSW 8.1 mph - N/A   Scattered Clouds
2:15 PM 59.0 °F - 32.0 °F 36% 29.99 in 10.0 mi SW 8.1 mph - N/A   Scattered Clouds
2:35 PM 59.0 °F - 32.0 °F 36% 29.98 in 10.0 mi WSW 6.9 mph - N/A   Clear
2:55 PM 59.0 °F - 32.0 °F 36% 29.96 in 10.0 mi Calm Calm - N/A   Clear
3:15 PM 59.0 °F - 32.0 °F 36% 29.96 in 10.0 mi Calm Calm - N/A   Clear
3:35 PM 60.8 °F - 32.0 °F 34% 29.95 in 10.0 mi SW 5.8 mph - N/A   Scattered Clouds
3:55 PM 59.0 °F - 32.0 °F 36% 29.95 in 10.0 mi SW 11.5 mph - N/A   Mostly Cloudy
4:15 PM 57.2 °F - 32.0 °F 38% 29.95 in 10.0 mi WSW 10.4 mph - N/A   Overcast
4:35 PM 55.4 °F - 32.0 °F 41% 29.95 in 10.0 mi SW 10.4 mph - N/A   Overcast
4:55 PM 55.4 °F - 32.0 °F 41% 29.96 in 10.0 mi WSW 12.7 mph 17.3 mph N/A   Overcast
5:15 PM 55.4 °F - 32.0 °F 41% 29.96 in 10.0 mi SW 13.8 mph - N/A   Overcast
5:35 PM 53.6 °F - 32.0 °F 44% 29.97 in 10.0 mi SW 12.7 mph 18.4 mph N/A   Overcast
5:55 PM 53.6 °F - 30.2 °F 41% 29.97 in 10.0 mi SW 12.7 mph 17.3 mph N/A   Overcast
6:15 PM 53.6 °F - 32.0 °F 44% 29.98 in 10.0 mi SW 16.1 mph 23.0 mph N/A   Overcast
6:35 PM 51.8 °F - 32.0 °F 47% 29.97 in 10.0 mi SW 12.7 mph - N/A   Overcast
6:55 PM 51.8 °F - 32.0 °F 47% 29.98 in 10.0 mi South 5.8 mph - N/A   Light Drizzle
7:15 PM 50.0 °F - 33.8 °F 54% 29.99 in 10.0 mi West 10.4 mph - N/A   Light Drizzle
7:35 PM 46.4 °F 43.5 °F 37.4 °F 71% 29.99 in 10.0 mi SW 5.8 mph - N/A   Light Drizzle
7:55 PM 44.6 °F 41.4 °F 37.4 °F 76% 30.01 in 7.0 mi West 5.8 mph - N/A   Drizzle
8:15 PM 44.6 °F 42.2 °F 41.0 °F 87% 30.02 in 10.0 mi SW 4.6 mph - N/A Rain Light Rain
8:35 PM 44.6 °F - 39.2 °F 81% 30.01 in 10.0 mi Calm Calm - N/A   Overcast
8:55 PM 44.6 °F 43.1 °F 37.4 °F 76% 30.01 in 10.0 mi SSE 3.5 mph - N/A   Overcast
9:15 PM 44.6 °F - 37.4 °F 76% 30.01 in 10.0 mi Calm Calm - N/A   Overcast
9:35 PM 44.6 °F - 41.0 °F 87% 30.01 in 10.0 mi Calm Calm - N/A   Overcast
9:55 PM 44.6 °F - 39.2 °F 81% 30.02 in 10.0 mi Calm Calm - N/A   Overcast
10:15 PM 44.6 °F - 39.2 °F 81% 30.01 in 10.0 mi Calm Calm - N/A   Overcast
10:35 PM 42.8 °F - 41.0 °F 93% 30.01 in 10.0 mi Calm Calm - N/A   Overcast
10:55 PM 42.8 °F - 41.0 °F 93% 30.01 in 10.0 mi Calm Calm - N/A   Overcast
11:15 PM 42.8 °F 41.1 °F 41.0 °F 93% 30.01 in 10.0 mi NNW 3.5 mph - N/A   Overcast
11:35 PM 42.8 °F - 41.0 °F 93% 30.01 in 10.0 mi Calm Calm - N/A   Overcast
11:55 PM 42.8 °F - 41.0 °F 93% 30.00 in 10.0 mi Calm Calm - N/A   Overcast